Starlink 31107

operational
NORAD ID: 58684 Int'l Des: 2023-211 Owner: SPXS Country: US Constellation: starlink
LEOCIRCULAR

关于 Starlink 31107

正在加载描述...

实时位置

正在加载3D地球...

即将过境

高度历史

Altitude vs Time

uPlot chart will show altitude changes over time

两行轨道根数

1 58684U 23211T 25261.22371438 -.00000767 00000-0 -18352-4 0 9991
2 58684 43.0013 339.6635 0002148 292.2828 67.7796 15.27571220 96084
Epoch: Sep 18, 2025 • Age: 19 hours

当前状态

高度 488.2 km
速度 7.62 km/s
星下点 -25.98°S, 54.6°W
发射日期 Dec 29, 2023
运行时间 1.7 years
类型 internet

技术详情

分类 Payload
质量 730.00 kg
干质量 700.00 kg
总质量 730.00 kg
长度 0.30 m
直径 4.10 m
跨度 29.00 m
形状 Box + pan
制造商 SPXS
平台类型 Starlink V2M
阶段状态 In Orbit
所有者/国家 SPXS/US

大型星座

Loading constellations...